CW1187 Weather Reports


Display with metric or nautical units.
time (UTC)temp
F
wind
direction
speed
MPH
gust
MPH
rain 1hr
in
rain 24hr
in
rain mn
in
humidity
%
barometer
mb
20260509212828 75 240 8.0 15.0 0.00 0.95 0.52 47 1006.9
20260509212020 76 270 8.0 15.0 0.00 0.95 0.52 50 1006.8
20260509211540 76 242 6.0 15.0 0.00 0.95 0.52 50 1006.9
20260509211058 76 244 5.0 13.0 0.00 0.95 0.52 48 1006.9
20260509210628 76 238 7.0 13.0 0.00 0.95 0.52 50 1006.9
20260509210110 75 219 3.0 13.0 0.00 0.95 0.52 54 1006.9
20260509205642 75 237 5.0 13.0 0.00 0.95 0.52 52 1006.9
20260509205531 75 237 5.0 13.0 0.00 0.95 0.52 52 1006.9
20260509205150 75 229 5.0 11.0 0.00 0.95 0.52 59 1006.9
20260509205039 75 229 5.0 11.0 0.00 0.95 0.52 59 1006.9
20260509204640 75 221 5.0 11.0 0.00 0.95 0.52 53 1007.0
20260509204054 75 252 6.0 14.0 0.00 0.95 0.52 55 1007.1
20260509203521 75 257 5.0 14.0 0.00 0.95 0.52 56 1007.1
20260509203034 75 198 6.0 15.0 0.00 0.95 0.52 56 1007.2
20260509202625 74 194 6.0 15.0 0.00 0.95 0.52 56 1007.1
20260509202020 74 213 5.0 16.0 0.00 0.95 0.52 56 1007.2
20260509201559 74 228 5.0 16.0 0.00 0.95 0.52 62 1007.3
20260509201048 74 258 4.0 13.0 0.00 0.95 0.52 64 1007.4
20260509200523 74 243 6.0 13.0 0.00 0.95 0.52 57 1007.4
20260509200145 74 196 4.0 10.0 0.00 0.95 0.52 56 1007.6
20260509195757 74 240 4.0 15.0 0.00 0.95 0.52 59 1007.7
20260509195630 74 240 4.0 15.0 0.00 0.95 0.52 59 1007.7
20260509195042 74 254 6.0 15.0 0.00 0.95 0.52 58 1007.7
20260509194558 73 244 6.0 14.0 0.00 0.95 0.52 59 1007.8
20260509194026 73 144 4.0 19.0 0.00 0.95 0.52 65 1007.8
20260509193540 72 238 6.0 19.0 0.00 0.95 0.52 61 1007.8
20260509193039 73 201 5.0 15.0 0.00 0.95 0.52 59 1007.8
20260509192519 73 155 5.0 15.0 0.00 0.95 0.52 62 1007.8
20260509192019 73 211 4.0 15.0 0.00 0.95 0.52 60 1007.7
20260509191553 73 200 4.0 10.0 0.00 0.95 0.52 66 1007.8
20260509191019 72 242 4.0 12.0 0.00 0.95 0.52 63 1007.8
20260509190524 72 255 5.0 12.0 0.00 0.95 0.52 64 1007.8
20260509190035 72 214 6.0 12.0 0.00 0.95 0.52 61 1007.8
20260509185520 72 227 5.0 11.0 0.00 0.95 0.52 62 1007.7
20260509185020 72 240 5.0 11.0 0.00 0.95 0.52 62 1007.9
20260509184549 71 196 4.0 11.0 0.00 0.95 0.52 68 1007.9
20260509184020 71 222 5.0 11.0 0.00 0.95 0.52 64 1007.9
20260509183519 71 260 4.0 11.0 0.00 0.95 0.52 63 1007.9
20260509183049 71 206 5.0 11.0 0.00 0.95 0.52 67 1008.0
20260509182519 71 242 3.0 11.0 0.00 0.95 0.52 65 1008.0
20260509182018 71 257 4.0 11.0 0.00 0.95 0.52 67 1008.0
20260509181538 70 246 5.0 12.0 0.00 0.95 0.52 66 1008.0
20260509181019 70 165 5.0 12.0 0.00 0.95 0.52 64 1008.0
20260509180519 70 250 5.0 12.0 0.00 0.95 0.52 65 1008.2
20260509180039 70 210 5.0 12.0 0.00 0.95 0.52 67 1008.0
20260509175521 70 238 5.0 12.0 0.00 0.95 0.52 67 1008.1
20260509175021 70 261 5.0 12.0 0.00 0.95 0.52 65 1008.2
20260509174538 70 236 6.0 12.0 0.00 0.95 0.52 69 1008.2
20260509174018 70 247 5.0 12.0 0.00 0.95 0.52 67 1008.2
20260509173522 70 221 3.0 12.0 0.00 0.95 0.52 69 1008.2
20260509173047 69 186 4.0 10.0 0.00 0.95 0.52 67 1008.3
20260509172519 69 239 5.0 11.0 0.00 0.95 0.52 67 1008.3
20260509172019 69 175 4.0 11.0 0.00 0.95 0.52 73 1008.4
20260509171539 69 232 4.0 11.0 0.00 0.95 0.52 67 1008.3
20260509171018 69 238 5.0 11.0 0.00 0.95 0.52 68 1008.2
20260509170518 69 242 6.0 11.0 0.00 0.95 0.52 68 1008.3
20260509170039 68 221 5.0 10.0 0.00 0.95 0.52 70 1008.5
20260509165518 68 250 5.0 10.0 0.00 0.95 0.52 70 1008.6
20260509165018 68 215 6.0 10.0 0.00 0.95 0.52 69 1008.5
20260509164538 68 233 5.0 15.0 0.00 0.95 0.52 74 1008.6
20260509164019 68 284 5.0 15.0 0.00 0.95 0.52 69 1008.5
20260509163518 68 244 6.0 10.0 0.00 0.95 0.52 70 1008.4
20260509163040 68 248 5.0 10.0 0.00 0.95 0.52 71 1008.4
20260509162521 68 205 3.0 10.0 0.00 0.95 0.52 70 1008.4
20260509162019 67 235 4.0 11.0 0.00 0.95 0.52 69 1008.4
20260509161532 67 241 6.0 11.0 0.00 0.95 0.52 76 1008.6
20260509161023 67 225 5.0 11.0 0.00 0.95 0.52 77 1008.4
20260509160521 67 242 4.0 12.0 0.00 0.95 0.52 70 1008.3
20260509160039 67 271 4.0 12.0 0.00 0.95 0.52 68 1008.3
20260509155521 67 250 5.0 12.0 0.00 0.95 0.52 71 1008.3
20260509155019 67 176 6.0 12.0 0.00 0.95 0.52 70 1008.3
20260509154538 66 241 4.0 10.0 0.00 0.95 0.52 70 1008.2
20260509154021 66 236 5.0 11.0 0.00 0.95 0.52 76 1008.2
20260509153518 66 249 6.0 11.0 0.00 0.95 0.52 71 1008.3
20260509153051 65 238 5.0 11.0 0.00 0.95 0.52 72 1008.3
20260509152521 65 222 6.0 11.0 0.00 0.95 0.52 74 1008.2
20260509152034 65 240 6.0 10.0 0.00 0.95 0.52 75 1008.3
20260509151538 64 200 4.0 11.0 0.00 0.95 0.52 77 1008.3
20260509151021 64 215 4.0 11.0 0.00 0.95 0.52 76 1008.3
20260509150523 64 153 6.0 11.0 0.00 0.95 0.52 74 1008.2
20260509150034 64 255 4.0 10.0 0.00 0.95 0.52 77 1008.3
20260509145519 64 255 2.0 9.0 0.00 0.95 0.52 77 1008.2
20260509145019 64 224 3.0 9.0 0.00 0.95 0.52 78 1008.2
20260509144540 63 219 3.0 9.0 0.00 0.95 0.52 77 1008.2
20260509144019 63 237 4.0 9.0 0.00 0.95 0.52 79 1008.2
20260509143518 62 238 3.0 8.0 0.00 0.95 0.52 79 1008.2
20260509143040 62 222 3.0 11.0 0.00 0.95 0.52 80 1008.2
20260509142523 61 243 3.0 11.0 0.00 0.95 0.52 81 1008.2
20260509142020 61 235 4.0 12.0 0.00 0.95 0.52 82 1008.1
20260509141539 60 243 3.0 12.0 0.00 0.95 0.52 84 1008.1
20260509141022 60 260 3.0 9.0 0.00 0.95 0.52 84 1008.1
20260509140520 59 223 3.0 8.0 0.00 0.95 0.52 85 1008.1
20260509140036 59 240 3.0 9.0 0.00 0.95 0.52 87 1008.1
20260509135521 59 263 3.0 9.0 0.00 0.95 0.52 88 1008.1
20260509135019 58 173 4.0 9.0 0.00 0.95 0.52 87 1008.0
20260509134540 58 243 3.0 7.0 0.00 0.95 0.52 88 1008.0
20260509134022 58 233 3.0 9.0 0.00 0.95 0.52 90 1008.1
20260509133519 57 184 3.0 10.0 0.00 0.95 0.52 91 1008.1
20260509133040 57 219 5.0 10.0 0.00 0.95 0.52 91 1008.1
20260509132521 57 207 3.0 8.0 0.00 0.95 0.52 92 1008.0
20260509132020 56 182 3.0 8.0 0.00 0.95 0.52 92 1008.1
20260509131538 56 190 4.0 9.0 0.00 0.95 0.52 92 1008.0
20260509131020 56 192 3.0 9.0 0.00 0.95 0.52 92 1007.9
20260509130518 56 208 3.0 6.0 0.00 0.95 0.52 92 1007.8
20260509130042 56 202 2.0 5.0 0.00 0.95 0.52 93 1007.9
20260509125520 55 194 3.0 7.0 0.00 0.95 0.52 93 1007.9
20260509125019 55 219 2.0 7.0 0.00 0.95 0.52 92 1007.9
20260509124548 55 188 3.0 7.0 0.00 0.95 0.52 93 1007.8
20260509124020 55 161 2.0 5.0 0.00 0.95 0.52 93 1007.8
20260509123521 55 146 1.0 5.0 0.00 0.95 0.52 93 1007.8
20260509123034 54 208 1.0 5.0 0.00 0.95 0.52 93 1008.0
20260509122519 54 0 1.0 5.0 0.00 0.95 0.52 93 1008.1
20260509122020 54 0 0.0 3.0 0.00 0.95 0.52 93 1008.1
20260509121539 54 0 1.0 3.0 0.00 0.95 0.52 93 1008.2
20260509121020 54 280 1.0 3.0 0.00 0.95 0.52 93 1008.2
20260509120521 54 0 1.0 4.0 0.00 0.95 0.52 93 1008.2
20260509120040 54 279 0.0 4.0 0.00 0.95 0.52 93 1008.2
20260509115518 54 277 1.0 4.0 0.00 0.95 0.52 93 1008.1
20260509115018 53 259 1.0 3.0 0.00 0.95 0.52 93 1007.9
20260509114542 53 248 1.0 3.0 0.00 0.95 0.52 93 1007.9
20260509114019 53 178 0.0 3.0 0.00 0.95 0.52 93 1007.6
20260509113518 53 176 1.0 3.0 0.00 0.95 0.52 93 1007.6
20260509113039 53 174 1.0 3.0 0.00 0.95 0.52 92 1007.4
20260509112518 53 175 1.0 4.0 0.00 0.95 0.52 92 1007.3
20260509112021 53 180 1.0 4.0 0.00 0.95 0.52 92 1007.3
20260509111535 53 180 1.0 4.0 0.00 0.95 0.52 92 1007.4
20260509111021 53 178 0.0 3.0 0.00 0.95 0.52 92 1007.3
20260509110519 53 178 1.0 3.0 0.00 0.95 0.52 92 1007.3
20260509110041 53 181 1.0 3.0 0.00 0.95 0.52 92 1007.2
20260509105520 53 180 1.0 3.0 0.01 0.95 0.52 92 1007.2
20260509105018 53 180 0.0 3.0 0.01 0.95 0.52 92 1007.1
20260509104540 53 180 1.0 5.0 0.01 0.95 0.52 92 1007.1
20260509104020 53 0 1.0 6.0 0.02 0.95 0.52 92 1007.0
20260509103520 53 202 2.0 7.0 0.03 0.95 0.52 92 1007.0
20260509103045 53 157 2.0 9.0 0.03 0.95 0.52 92 1006.9
20260509102521 53 193 3.0 9.0 0.04 0.95 0.52 92 1006.9
20260509102020 53 169 3.0 11.0 0.04 0.95 0.52 92 1006.9
20260509101556 53 188 4.0 11.0 0.04 0.95 0.52 92 1006.8
20260509101019 53 157 4.0 11.0 0.04 0.95 0.52 92 1007.0
20260509100520 53 163 5.0 11.0 0.04 0.95 0.52 92 1007.1
20260509100034 53 158 2.0 7.0 0.04 0.95 0.52 92 1007.3
20260509095521 53 165 2.0 7.0 0.03 0.94 0.51 92 1007.7
20260509095020 53 205 2.0 6.0 0.04 0.94 0.51 92 1007.8
20260509094533 53 202 1.0 6.0 0.03 0.93 0.50 92 1007.9
20260509094020 53 217 1.0 5.0 0.03 0.93 0.50 92 1008.0
20260509093520 53 209 1.0 5.0 0.03 0.92 0.49 92 1008.0
20260509093041 53 254 1.0 5.0 0.03 0.92 0.49 92 1008.0
20260509092520 53 208 1.0 5.0 0.02 0.91 0.48 92 1008.0
20260509092020 53 204 1.0 9.0 0.03 0.91 0.48 92 1008.0
20260509091542 54 211 3.0 9.0 0.03 0.91 0.48 92 1008.0
20260509091020 54 196 2.0 5.0 0.04 0.91 0.48 92 1007.9
20260509090522 54 242 2.0 5.0 0.04 0.91 0.48 92 1008.0
20260509090047 54 248 2.0 5.0 0.04 0.91 0.48 92 1008.0
20260509085520 54 225 2.0 6.0 0.04 0.91 0.48 92 1007.9
20260509085020 54 250 2.0 6.0 0.03 0.90 0.47 92 1007.9
20260509084535 54 242 2.0 6.0 0.04 0.90 0.47 92 1007.9
20260509084018 54 264 2.0 6.0 0.04 0.90 0.47 92 1007.9
20260509083518 54 238 2.0 7.0 0.03 0.89 0.46 92 1007.7
20260509083052 54 252 2.0 7.0 0.03 0.89 0.46 92 1007.8
20260509082523 54 223 3.0 6.0 0.04 0.89 0.46 92 1008.0
20260509082022 54 244 2.0 6.0 0.03 0.88 0.45 92 1007.9
20260509081540 54 239 3.0 6.0 0.04 0.88 0.45 92 1007.9
20260509081019 54 222 2.0 5.0 0.03 0.87 0.44 92 1008.0
20260509080520 54 238 2.0 8.0 0.04 0.87 0.44 92 1007.9
20260509080042 54 227 2.0 8.0 0.04 0.87 0.44 92 1008.0
20260509075522 54 199 2.0 7.0 0.04 0.87 0.44 92 1008.0
20260509075024 54 238 2.0 6.0 0.04 0.87 0.44 92 1008.1
20260509074544 54 235 2.0 6.0 0.04 0.86 0.43 92 1008.2
20260509074019 54 245 3.0 8.0 0.04 0.86 0.43 92 1008.2
20260509073519 54 238 2.0 8.0 0.05 0.86 0.43 92 1008.2
20260509073037 54 198 2.0 7.0 0.06 0.86 0.43 92 1008.3
20260509072518 54 261 1.0 5.0 0.06 0.85 0.42 92 1008.3
20260509072018 54 209 2.0 7.0 0.07 0.85 0.42 92 1008.4
20260509071545 54 236 3.0 7.0 0.08 0.84 0.41 92 1008.4
20260509071020 54 266 2.0 5.0 0.09 0.84 0.41 92 1008.5
20260509070524 54 250 1.0 3.0 0.09 0.83 0.40 92 1008.4
20260509070042 54 248 1.0 4.0 0.11 0.83 0.40 92 1008.5
20260509065521 54 250 1.0 4.0 0.13 0.83 0.40 92 1008.5
20260509065020 54 251 2.0 4.0 0.13 0.83 0.40 92 1008.5
20260509064539 54 246 1.0 4.0 0.14 0.82 0.39 92 1008.6
20260509064020 54 252 1.0 5.0 0.14 0.82 0.39 92 1008.8
20260509063519 54 251 2.0 6.0 0.13 0.80 0.37 92 1009.0
20260509063038 54 240 2.0 6.0 0.13 0.79 0.36 92 1009.1
20260509062519 54 238 2.0 4.0 0.13 0.78 0.35 92 1009.2
20260509062020 54 248 0.0 3.0 0.13 0.77 0.34 92 1009.3
20260509061537 54 248 1.0 3.0 0.13 0.76 0.33 92 1009.3
20260509061024 54 248 1.0 4.0 0.13 0.75 0.32 92 1009.4
20260509060521 54 250 1.0 4.0 0.13 0.74 0.31 92 1009.5
20260509060049 54 240 2.0 4.0 0.12 0.72 0.29 92 1009.6
20260509055521 54 245 2.0 4.0 0.12 0.70 0.27 92 1009.6
20260509055021 54 238 1.0 3.0 0.12 0.69 0.26 92 1009.6
20260509054541 54 237 1.0 3.0 0.12 0.68 0.25 92 1009.5
20260509054020 54 236 0.0 3.0 0.14 0.68 0.25 92 1009.4
20260509053520 54 0 0.0 3.0 0.15 0.67 0.24 92 1009.4
20260509053101 54 236 1.0 3.0 0.15 0.66 0.23 92 1009.6
20260509052522 54 210 1.0 3.0 0.15 0.65 0.22 92 1009.7
20260509052019 54 0 1.0 3.0 0.16 0.64 0.21 92 1009.6
20260509051544 54 208 1.0 3.0 0.16 0.63 0.20 91 1009.7
20260509051020 54 207 1.0 3.0 0.16 0.62 0.19 91 1009.7
20260509050521 54 202 0.0 3.0 0.16 0.61 0.18 91 1009.5
20260509050035 54 0 0.0 3.0 0.16 0.60 0.17 91 1009.4
20260509045528 54 0 1.0 3.0 0.15 0.58 0.15 91 1009.5
20260509045021 54 0 1.0 4.0 0.16 0.57 0.14 91 1009.5
20260509044533 54 169 1.0 4.0 0.15 0.55 0.12 91 1009.6
20260509044019 54 193 1.0 4.0 0.15 0.54 0.11 91 1009.6
20260509043519 54 195 2.0 4.0 0.14 0.52 0.09 91 1009.6
20260509043051 54 0 1.0 5.0 0.14 0.51 0.08 91 1009.7
20260509042521 54 198 2.0 5.0 0.13 0.49 0.06 91 1009.7
20260509042021 54 183 2.0 4.0 0.13 0.48 0.05 91 1009.7
20260509041539 54 227 1.0 4.0 0.14 0.47 0.04 91 1009.7
20260509041021 54 213 2.0 4.0 0.14 0.46 0.03 91 1009.7
20260509040523 54 207 1.0 4.0 0.14 0.45 0.02 91 1009.9
20260509040042 54 213 1.0 4.0 0.14 0.44 0.01 91 1009.8
20260509035519 54 219 1.0 4.0 0.13 0.42 0.42 91 1009.9
20260509035021 54 246 1.0 3.0 0.12 0.41 0.41 91 1010.0
20260509034540 54 252 1.0 3.0 0.12 0.40 0.40 91 1010.1
20260509034020 55 252 1.0 3.0 0.11 0.39 0.39 91 1010.1
20260509033521 55 253 1.0 4.0 0.10 0.38 0.38 91 1010.1
20260509033041 55 252 0.0 4.0 0.10 0.37 0.37 91 1010.2
20260509032521 55 250 1.0 4.0 0.09 0.36 0.36 91 1010.2
20260509032021 55 253 1.0 4.0 0.09 0.35 0.35 91 1010.0
20260509031554 55 248 2.0 4.0 0.07 0.33 0.33 90 1010.2
20260509031020 55 254 1.0 4.0 0.07 0.32 0.32 90 1010.3
20260509030521 55 0 1.0 4.0 0.06 0.31 0.31 90 1010.4
20260509030058 55 252 1.0 4.0 0.06 0.30 0.30 90 1010.4
20260509025521 55 255 1.0 4.0 0.06 0.29 0.29 90 1010.4
20260509025017 55 254 1.0 3.0 0.07 0.29 0.29 90 1010.4
20260509024541 55 247 1.0 3.0 0.06 0.28 0.28 90 1010.4
20260509024018 55 254 1.0 3.0 0.07 0.28 0.28 90 1010.4
20260509023520 55 260 1.0 3.0 0.08 0.28 0.28 90 1010.4
20260509023037 55 261 0.0 3.0 0.08 0.27 0.27 90 1010.4
20260509022520 55 261 1.0 3.0 0.09 0.26 0.26 90 1010.6
20260509022020 55 0 1.0 3.0 0.10 0.26 0.26 90 1010.5
20260509021539 55 255 1.0 5.0 0.11 0.26 0.26 90 1010.5
20260509021019 55 243 2.0 5.0 0.11 0.25 0.25 90 1010.3
20260509020520 55 261 2.0 5.0 0.12 0.25 0.25 90 1010.4
20260509020041 55 252 2.0 4.0 0.12 0.24 0.24 90 1010.3
20260509015520 55 221 1.0 5.0 0.12 0.23 0.23 90 1010.3
20260509015021 55 270 2.0 5.0 0.12 0.22 0.22 89 1010.5
20260509014538 55 242 2.0 5.0 0.13 0.22 0.22 89 1010.5
20260509014020 55 240 2.0 7.0 0.13 0.20 0.20 89 1010.5
20260509013523 55 259 3.0 7.0 0.12 0.19 0.19 89 1010.5
20260509013038 55 258 2.0 6.0 0.12 0.18 0.18 89 1010.4
20260509012521 55 253 2.0 4.0 0.11 0.17 0.17 89 1010.1
20260509012021 55 263 1.0 5.0 0.11 0.16 0.16 89 1010.1
20260509011535 55 0 1.0 6.0 0.10 0.15 0.15 89 1010.0
20260509011022 55 276 2.0 6.0 0.09 0.14 0.14 88 1009.9
20260509010519 55 292 1.0 6.0 0.08 0.12 0.12 88 1009.9
20260509010040 55 292 1.0 4.0 0.08 0.12 0.12 88 1009.9
20260509005521 55 293 1.0 6.0 0.07 0.11 0.11 88 1009.9
20260509005019 55 290 1.0 6.0 0.06 0.10 0.10 88 1009.7
20260509004549 55 315 1.0 3.0 0.04 0.08 0.08 88 1009.9
20260509004023 55 321 1.0 4.0 0.03 0.07 0.07 87 1009.9
20260509003521 55 346 1.0 4.0 0.04 0.07 0.07 87 1009.5
20260509003049 55 339 1.0 5.0 0.03 0.06 0.06 87 1009.5
20260509002517 55 340 2.0 5.0 0.04 0.06 0.06 86 1009.4
20260509002020 55 327 2.0 5.0 0.03 0.05 0.05 86 1009.3
20260509001539 55 338 1.0 4.0 0.04 0.05 0.05 86 1009.6
20260509001020 55 332 1.0 4.0 0.04 0.05 0.05 86 1009.8
20260509000519 55 332 1.0 4.0 0.04 0.04 0.04 85 1009.8
20260509000035 55 327 1.0 4.0 0.04 0.04 0.04 85 1009.7
20260508235522 56 326 1.0 4.0 0.04 0.04 0.04 84 1009.6
20260508235025 56 299 1.0 3.0 0.04 0.04 0.04 84 1009.6
20260508234542 56 288 0.0 2.0 0.04 0.04 0.04 83 1009.7
20260508234020 56 288 0.0 2.0 0.04 0.04 0.04 83 1009.7
20260508233523 56 288 0.0 2.0 0.03 0.03 0.03 82 1009.8
20260508233041 56 288 0.0 3.0 0.03 0.03 0.03 82 1009.7
20260508232520 57 288 1.0 3.0 0.02 0.02 0.02 81 1009.7
20260508232020 57 288 1.0 4.0 0.02 0.02 0.02 79 1009.8
20260508231536 57 302 1.0 4.0 0.01 0.01 0.01 78 1009.8
20260508231021 58 298 2.0 4.0 0.00 0.00 0.00 83 1009.8
20260508230520 58 302 2.0 7.0 0.00 0.00 0.00 76 1009.8
20260508230035 58 303 2.0 7.0 0.00 0.00 0.00 75 1009.6
20260508225519 59 303 2.0 4.0 0.00 0.00 0.00 74 1009.6
20260508225021 59 299 2.0 4.0 0.00 0.00 0.00 74 1009.5
20260508224548 59 303 1.0 4.0 0.00 0.00 0.00 73 1009.4
20260508224023 60 290 2.0 4.0 0.00 0.00 0.00 72 1009.5
20260508223520 60 297 2.0 4.0 0.00 0.00 0.00 76 1009.5
20260508223049 61 293 2.0 6.0 0.00 0.00 0.00 69 1009.4
20260508222520 62 286 2.0 6.0 0.00 0.00 0.00 68 1009.4
20260508222020 62 277 1.0 6.0 0.00 0.00 0.00 67 1009.2
20260508221539 62 261 2.0 6.0 0.00 0.00 0.00 66 1009.2
20260508221023 62 279 2.0 9.0 0.00 0.00 0.00 64 1009.3
20260508220520 62 257 1.0 10.0 0.00 0.00 0.00 62 1009.2
20260508220048 63 258 4.0 12.0 0.00 0.00 0.00 60 1009.3
20260508215519 63 252 5.0 12.0 0.00 0.00 0.00 60 1009.1
20260508215020 63 244 5.0 10.0 0.00 0.00 0.00 59 1009.0
20260508214535 63 208 2.0 10.0 0.00 0.00 0.00 60 1009.1
20260508214017 63 216 3.0 10.0 0.00 0.00 0.00 58 1009.0
20260508213520 64 240 1.0 4.0 0.00 0.00 0.00 59 1009.1
20260508213035 64 250 2.0 4.0 0.00 0.00 0.00 60 1009.1